Stündliche Wetter Holohory

Heute, 21 Juni, Montag

Zeit Temperatur Niederschläge Wind Luftdruck Luftfeuchtigkeit
00:00 +18°C° 0 mm 2 m/S 731 mmHg 95%
01:00 +18°C° 0 mm 2 m/S 730 mmHg 95%
02:00 +17°C° 0 mm 2 m/S 730 mmHg 95%
03:00 +17°C° 0 mm 2 m/S 730 mmHg 95%
04:00 +17°C° 0 mm 2 m/S 730 mmHg 95%
05:00 +17°C° 0 mm 2 m/S 730 mmHg 95%
06:00 +18°C° 0 mm 2 m/S 730 mmHg 91%
07:00 +20°C° 0 mm 3 m/S 730 mmHg 88%
08:00 +21°C° 0 mm 3 m/S 730 mmHg 84%
09:00 +22°C° 0.1 mm 3 m/S 730 mmHg 79%
10:00 +24°C° 0.1 mm 3 m/S 730 mmHg 75%
11:00 +25°C° 0.1 mm 3 m/S 730 mmHg 71%
12:00 +26°C° 0.1 mm 3 m/S 730 mmHg 68%
13:00 +27°C° 0.1 mm 3 m/S 730 mmHg 66%
14:00 +27°C° 0.1 mm 3 m/S 730 mmHg 64%
15:00 +27°C° 0 mm 3 m/S 730 mmHg 66%
16:00 +27°C° 0 mm 3 m/S 730 mmHg 68%
17:00 +27°C° 0 mm 3 m/S 730 mmHg 70%
18:00 +26°C° 0.1 mm 3 m/S 729 mmHg 75%
19:00 +24°C° 0.1 mm 3 m/S 729 mmHg 81%
20:00 +22°C° 0.1 mm 3 m/S 729 mmHg 86%
21:00 +21°C° 0 mm 3 m/S 729 mmHg 88%
22:00 +20°C° 0 mm 2 m/S 729 mmHg 90%
23:00 +19°C° 0 mm 2 m/S 730 mmHg 92%

Morgen, 22 Juni, Dienstag

Zeit Temperatur Niederschläge Wind Luftdruck Luftfeuchtigkeit
00:00 +19°C° 0 mm 2 m/S 730 mmHg 92%
01:00 +19°C° 0 mm 3 m/S 729 mmHg 93%
02:00 +18°C° 0 mm 3 m/S 729 mmHg 93%
03:00 +18°C° 0 mm 2 m/S 729 mmHg 93%
04:00 +18°C° 0 mm 2 m/S 729 mmHg 93%
05:00 +18°C° 0 mm 2 m/S 730 mmHg 93%
06:00 +19°C° 0 mm 3 m/S 730 mmHg 89%
07:00 +21°C° 0 mm 3 m/S 730 mmHg 84%
08:00 +22°C° 0 mm 4 m/S 730 mmHg 80%
09:00 +25°C° 0 mm 4 m/S 730 mmHg 76%
10:00 +26°C° 0 mm 4 m/S 731 mmHg 72%
11:00 +27°C° 0 mm 4 m/S 731 mmHg 67%
12:00 +28°C° 0 mm 4 m/S 731 mmHg 66%
13:00 +28°C° 0 mm 4 m/S 731 mmHg 64%
14:00 +29°C° 0 mm 4 m/S 731 mmHg 62%
15:00 +29°C° 0 mm 4 m/S 731 mmHg 65%
16:00 +29°C° 0 mm 3 m/S 731 mmHg 67%
17:00 +29°C° 0 mm 3 m/S 731 mmHg 69%
18:00 +27°C° 0 mm 3 m/S 731 mmHg 74%
19:00 +26°C° 0 mm 2 m/S 731 mmHg 78%
20:00 +25°C° 0 mm 2 m/S 731 mmHg 83%
21:00 +24°C° 0 mm 2 m/S 731 mmHg 85%
22:00 +23°C° 0 mm 2 m/S 731 mmHg 87%
23:00 +21°C° 0 mm 2 m/S 731 mmHg 89%

übermorgen, 23 Juni, Mittwoch

Zeit Temperatur Niederschläge Wind Luftdruck Luftfeuchtigkeit
00:00 +21°C° 0 mm 2 m/S 731 mmHg 90%
01:00 +20°C° 0 mm 2 m/S 731 mmHg 90%
02:00 +20°C° 0 mm 2 m/S 731 mmHg 91%
03:00 +20°C° 0 mm 2 m/S 731 mmHg 91%
04:00 +20°C° 0 mm 2 m/S 731 mmHg 91%
05:00 +20°C° 0 mm 2 m/S 731 mmHg 91%
06:00 +21°C° 0 mm 2 m/S 732 mmHg 87%
07:00 +24°C° 0 mm 2 m/S 732 mmHg 83%
08:00 +25°C° 0 mm 3 m/S 733 mmHg 79%
09:00 +27°C° 0 mm 2 m/S 733 mmHg 75%
10:00 +28°C° 0 mm 2 m/S 733 mmHg 71%
11:00 +29°C° 0 mm 2 m/S 733 mmHg 67%
12:00 +29°C° 0 mm 2 m/S 733 mmHg 65%
13:00 +30°C° 0 mm 2 m/S 733 mmHg 62%
14:00 +31°C° 0 mm 2 m/S 733 mmHg 59%
15:00 +31°C° 0 mm 1 m/S 733 mmHg 59%
16:00 +31°C° 0 mm 1 m/S 733 mmHg 59%
17:00 +31°C° 0 mm 1 m/S 733 mmHg 59%
18:00 +29°C° 0.1 mm 1 m/S 733 mmHg 65%
19:00 +28°C° 0.1 mm 1 m/S 733 mmHg 71%
20:00 +26°C° 0.1 mm 1 m/S 733 mmHg 77%
21:00 +25°C° 0.1 mm 1 m/S 733 mmHg 79%
22:00 +24°C° 0.1 mm 1 m/S 733 mmHg 82%
23:00 +23°C° 0.1 mm 1 m/S 733 mmHg 84%

24 Juni, Donnerstag

Zeit Temperatur Niederschläge Wind Luftdruck Luftfeuchtigkeit
00:00 +23°C° 0.1 mm 1 m/S 733 mmHg 85%
01:00 +21°C° 0.1 mm 0 m/S 733 mmHg 85%
02:00 +21°C° 0.1 mm 0 m/S 733 mmHg 86%
03:00 +20°C° 0.4 mm 0 m/S 733 mmHg 87%
04:00 +20°C° 0.4 mm 0 m/S 734 mmHg 88%
05:00 +20°C° 0.4 mm 0 m/S 734 mmHg 89%
06:00 +21°C° 0 mm 0 m/S 734 mmHg 86%
07:00 +22°C° 0 mm 0 m/S 734 mmHg 83%
08:00 +24°C° 0 mm 0 m/S 734 mmHg 80%
09:00 +25°C° 0.5 mm 0 m/S 734 mmHg 76%
10:00 +26°C° 0.5 mm 0 m/S 734 mmHg 71%
11:00 +29°C° 0.5 mm 1 m/S 734 mmHg 67%
12:00 +30°C° 0 mm 1 m/S 734 mmHg 62%
13:00 +30°C° 0 mm 1 m/S 734 mmHg 58%
14:00 +31°C° 0 mm 1 m/S 734 mmHg 54%
15:00 +31°C° 0 mm 1 m/S 734 mmHg 56%
16:00 +31°C° 0 mm 1 m/S 734 mmHg 58%
17:00 +31°C° 0 mm 1 m/S 734 mmHg 60%
18:00 +29°C° 0 mm 2 m/S 734 mmHg 66%
19:00 +28°C° 0 mm 2 m/S 733 mmHg 72%
20:00 +26°C° 0 mm 2 m/S 733 mmHg 78%
21:00 +25°C° 0 mm 2 m/S 733 mmHg 80%
22:00 +24°C° 0 mm 2 m/S 733 mmHg 82%
23:00 +23°C° 0 mm 2 m/S 733 mmHg 84%

25 Juni, Freitag

Zeit Temperatur Niederschläge Wind Luftdruck Luftfeuchtigkeit
00:00 +23°C° 0 mm 2 m/S 733 mmHg 86%
01:00 +21°C° 0 mm 2 m/S 733 mmHg 87%
02:00 +22°C° 0 mm 1 m/S 733 mmHg 89%
03:00 +21°C° 0 mm 2 m/S 733 mmHg 89%
04:00 +21°C° 0 mm 2 m/S 732 mmHg 89%
05:00 +21°C° 0 mm 2 m/S 732 mmHg 90%
06:00 +23°C° 0 mm 2 m/S 732 mmHg 86%
07:00 +25°C° 0 mm 2 m/S 732 mmHg 81%
08:00 +27°C° 0 mm 3 m/S 732 mmHg 77%
09:00 +28°C° 0 mm 3 m/S 732 mmHg 73%
10:00 +29°C° 0 mm 3 m/S 732 mmHg 69%
11:00 +30°C° 0 mm 3 m/S 732 mmHg 65%
12:00 +30°C° 0 mm 3 m/S 732 mmHg 64%
13:00 +32°C° 0 mm 4 m/S 732 mmHg 62%
14:00 +32°C° 0 mm 4 m/S 732 mmHg 61%
15:00 +30°C° 0.3 mm 4 m/S 731 mmHg 66%
16:00 +29°C° 0.3 mm 5 m/S 731 mmHg 71%
17:00 +28°C° 0.3 mm 5 m/S 730 mmHg 76%
18:00 +25°C° 4.8 mm 4 m/S 730 mmHg 79%
19:00 +22°C° 4.8 mm 3 m/S 731 mmHg 83%
20:00 +19°C° 4.8 mm 2 m/S 731 mmHg 87%
21:00 +19°C° 0.1 mm 2 m/S 731 mmHg 89%
22:00 +19°C° 0.1 mm 2 m/S 732 mmHg 91%
23:00 +18°C° 0.1 mm 2 m/S 732 mmHg 94%

26 Juni, Samstag

Zeit Temperatur Niederschläge Wind Luftdruck Luftfeuchtigkeit
00:00 +18°C° 0 mm 2 m/S 732 mmHg 94%
01:00 +18°C° 0 mm 1 m/S 732 mmHg 95%
02:00 +16°C° 0 mm 0 m/S 732 mmHg 96%
03:00 +18°C° 0.1 mm 1 m/S 732 mmHg 96%
04:00 +18°C° 0.1 mm 1 m/S 732 mmHg 97%
05:00 +18°C° 0.1 mm 2 m/S 732 mmHg 97%
06:00 +18°C° 0.5 mm 2 m/S 732 mmHg 97%
07:00 +18°C° 0.5 mm 2 m/S 733 mmHg 96%
08:00 +19°C° 0.5 mm 2 m/S 733 mmHg 96%
09:00 +19°C° 0.3 mm 2 m/S 733 mmHg 93%
10:00 +19°C° 0.3 mm 3 m/S 733 mmHg 90%
11:00 +20°C° 0.3 mm 3 m/S 733 mmHg 87%
12:00 +21°C° 0 mm 3 m/S 733 mmHg 82%
13:00 +22°C° 0 mm 3 m/S 733 mmHg 77%
14:00 +24°C° 0 mm 3 m/S 733 mmHg 72%
15:00 +24°C° 0 mm 2 m/S 732 mmHg 74%
16:00 +23°C° 0 mm 2 m/S 732 mmHg 76%
17:00 +23°C° 0 mm 2 m/S 732 mmHg 78%
18:00 +21°C° 0.1 mm 2 m/S 732 mmHg 80%
19:00 +21°C° 0.1 mm 2 m/S 732 mmHg 82%
20:00 +21°C° 0.1 mm 1 m/S 732 mmHg 84%
21:00 +19°C° 0.2 mm 2 m/S 732 mmHg 87%
22:00 +18°C° 0.2 mm 2 m/S 732 mmHg 89%
23:00 +18°C° 0.2 mm 2 m/S 732 mmHg 92%
Mehr zeigen

Wir brauchen deine Erlaubnis

Meteoprog und unser Service Anbieter werden persönliche Daten aufbewahren, so wie Cookies, Geräte Bezeichnung oder ähnliche Technologien von deinem Gerät und Prozess, so wie Persönliche Daten Inhalte und Werbungen, genauso wie social Media und den Verkehr zu analysieren.

  • Aufbewahrung und/oder Zugang zu deiner Geräte Informationen.

    Cookies, Geräte Bezeichnung oder andere Informationen, können aufbewahrt oder Zugang zu deinem Gerät erhalten, für den Grund, der oben angegeben wird.

  • Personalisierte Werbung und Inhalte, Messungen, Einblick in das Publikum und Produkt Entwicklung.

    Werbungen und Inhalte können personalisiert werden, basierend auf ein Profil. Mehr Daten können besser personalisierte Werbungen und Inhalte hinzufügen. Werbung und Inhalte können gezeigt und gemessen werden. Einblicke über das Publikum, welche die Werbung gesehen haben und den Inhalt, können abgeleitet werden. So wie Daten können genutzt werden, um es zu verbessern oder die Benutzer Erfahrung zu verbessern das System und die Software.

Wenn du “Ich stimme zu” klickst, erlaubst du uns, die Cookies zu benutzen die Geräte Bezeichnung, den Web oder ähnliche Technologien zu benutzen. Deine Settings, können in deinem Gerät bei deinem Browser geändert werden.

Für den bestimmten Zweck, berechtigten Interessen beruhen darauf, mehr als auf den Inhalt. Du kannst mehr darüber in unseren Privaten und Cookie Politik lesen.